GAOFEN-5 01

Last updated on Tue Sep 16 2025 00:02:31 GMT+0000 (Coordinated Universal Time)

1 43461U 18043A 25258.60291834 .00000425 00000+0 98091-4 0 9990 2 43461 98.4165 220.1108 0001487 163.7801 196.3447 14.60252853391613
UTC large
Height (km)
Speed (km/s)
/
Latitude / Longitude
Inclination (degrees)
Orbital Period (minutes)
Azimuth
Elevation
Range (km)
Doppler Factor

Next 0 passes for location: London (51.5072 / 0.1276)

Sorry there are no passes over London.